Content
SEND FEEDBACK

Daily
Averages
Monthly
Summary
United States of America

LANCASTER, CALIFORNIA


Home > North America > United States > California
Elevation: 2339 feet     Latitude: 34 44N     Longitude: 118 13W

WEATHER
 
SELECT A DAY
Number of Records: 17,655;   Date Range: 9/1/12 - 10/21/14
 
SHARE

PRINT THIS DATA

[ ← Previous Day ]
WEATHER ALMANAC - FEBRUARY 13, 2013
[ Next Day → ]
[ °C ]   °F
Weather ElementAverageHighLow
Temperature43.9 °F64 °F (2:56 pm)21.9 °F (6:56 am)
Dewpoint18.3 °F27 °F (8:56 pm)12 °F (3:56 pm)
Humidity43.5 %78 % (6:56 am)13 % (3:56 pm)
Barometer30.28 in30.38 in (8:56 am)30.19 in (4:56 pm)
Wind Speed2.8 mph9.2 mph (7:56 pm)
Weather ElementAverage
Visibility10 mi
Wind DirectionESE (115.7 °)

Weather ElementTotal
Precipitation---
Heating Degree Days22.1 (Base 65)
Averaged from 23 records on February 13, 2013
WEATHER CONDITIONS BREAKOUT
WIND DIRECTION BREAKOUT
WEATHER BY HOUR - FEBRUARY 13, 2013
[ °C ]   °F
Local TimeTemperatureDewpointHumidityBarometerVisibilityWind DirectionWind SpeedGust SpeedPrecipitationEventsConditions
1:56 AM30.9 °F19.9 °F64 %30.31 in10.0 miSW (230°)3.5 mphClear
2:56 AM27.0 °F17.1 °F66 %30.31 in10.0 miNW (310°)5.8 mphClear
3:56 AM27.0 °F18.0 °F69 %30.30 in10.0 miWSW (250°)3.5 mphClear
4:56 AM26.1 °F18.0 °F71 %30.31 in10.0 miNorthClear
5:56 AM26.1 °F18.0 °F71 %30.33 in10.0 miCalmClear
6:56 AM21.9 °F16.0 °F78 %30.36 in10.0 miCalmClear
7:56 AM30.9 °F19.0 °F61 %30.37 in10.0 miCalmClear
8:56 AM39.9 °F19.9 °F45 %30.38 in10.0 miCalmClear
9:56 AM46.9 °F21.0 °F36 %30.37 in10.0 miCalmClear
10:56 AM53.1 °F19.0 °F26 %30.34 in10.0 miCalmClear
11:56 AM57.9 °F14.0 °F18 %30.30 in10.0 miENE (60°)4.6 mphClear
12:56 PM62.1 °F14.0 °F15 %30.26 in10.0 miVariable3.5 mphClear
1:56 PM63.0 °F12.9 °F14 %30.23 in10.0 miCalmClear
2:56 PM64.0 °F12.9 °F14 %30.21 in10.0 miEast (90°)3.5 mphClear
3:56 PM64.0 °F12.0 °F13 %30.20 in10.0 miCalmClear
4:56 PM63.0 °F12.0 °F14 %30.19 in10.0 miNE (50°)3.5 mphClear
5:56 PM57.0 °F12.9 °F18 %30.20 in10.0 miCalmClear
6:56 PM48.0 °F19.0 °F32 %30.23 in10.0 miSW (230°)3.5 mphClear
7:56 PM46.0 °F25.0 °F44 %30.23 in10.0 miWNW (300°)9.2 mphClear
8:56 PM43.0 °F27.0 °F53 %30.24 in10.0 miWest (280°)5.8 mphClear
9:56 PM39.0 °F24.1 °F55 %30.24 in10.0 miWNW (300°)5.8 mphClear
10:56 PM37.0 °F25.0 °F62 %30.25 in10.0 miWNW (290°)4.6 mphClear
11:56 PM36.0 °F24.1 °F62 %30.24 in10.0 miWest (270°)4.6 mphClear
Hourly data recorded from KWJF, located miles away from Lancaster, California







STORIES FROM OUR PARTNERS